Regional Weather Roundup
Issued by NWS

Home | Current Version | Previous Version | Graphics & Text | Print | Product List | Glossary On
Versions: 1 2 3 4 5 6 7 8 9 10 11 12 13 14 15 16 17 18 19 20 21 22 23 24 25 26 27 28 29 30 31 32 33 34 35 36 37 38 39 40 41 42 43 44 45 46 47 48 49 50
000
ASUS45 KBOU 011107
RWRCO

WEATHER ROUNDUP FOR COLORADO
NATIONAL WEATHER SERVICE DENVER/BOULDER CO
400 AM MST SUN FEB 01 2015

NOTE: "FAIR" INDICATES FEW OR NO CLOUDS BELOW 12000 FEET WITH NO
SIGNIFICANT WEATHER AND/OR OBSTRUCTIONS TO VISIBILITY.

COZ001>005-013-030-031-011200-
...NORTHWEST COLORADO...

CITY           SKY/WX    TMP DP  RH WIND       PRES   REMARKS
CRAIG          CLEAR     19  15  84 CALM      30.11R
HAYDEN         CLEAR     19  14  79 W3        30.09R
MEEKER         CLEAR     16  12  84 NE3       30.11R
MOUNT WERNER   NOT AVBL
STEAMBOAT SPGS MOCLDY    19  16  90 CALM      30.07R
WALDEN         MOCLDY    18  14  86 N9        30.00S WCI   6
$$

COZ006>008-011-011200-
...WEST CENTRAL VALLEYS...

CITY           SKY/WX    TMP DP  RH WIND       PRES   REMARKS
GRAND JUNCTION CLEAR     28  27  96 E3        30.10R
MONTROSE       PTCLDY    29  26  89 SE9       30.12R WCI  20
EAGLE          PTCLDY    21  18  86 E10       30.10R WCI  10
RIFLE          CLEAR     26  22  84 CALM      30.11R
DELTA          CLOUDY    37  35  94 CALM      30.11S
NUCLA          CLEAR     28  27  93 SE6       30.13S WCI  22
$$

COZ017>023-064>068-011200-
...SOUTHWEST COLORADO...

CITY           SKY/WX    TMP DP  RH WIND       PRES   REMARKS
DURANGO        FOG       30  30 100 CALM      30.00R VSB 1/4
CORTEZ         CLEAR     32  28  85 NW3       30.04R
PAGOSA SPRINGS LGT SNOW  30  30 100 CALM      30.00R
TELLURIDE      PTCLDY    19  12  77 SE5       30.10S WCI  12
WOLF CREEK PAS PTCLDY    12  -6  44 NE6       30.03S WCI   3
$$

COZ009-010-012-014-032>034-037-058>063-011200-
...CENTRAL COLORADO...

CITY           SKY/WX    TMP DP  RH WIND       PRES   REMARKS
ASPEN          PTCLDY    21  11  65 CALM      30.05R
BUENA VISTA    CLEAR     26   4  40 N13       29.96S WCI  15
COPPER MTN     NOT AVBL
BERTHOUD PASS  LGT SNOW   1  -4  78 NW38G51   29.83S VSB 1   WCI -26
COTTONWOOD PAS CLEAR     23  -4  30 NW14G35   29.93S WCI  11
GUNNISON       PTCLDY    19   7  58 CALM      30.06S
KREMMLING      PTCLDY    23  10  58 NW5       30.05R WCI  17
LEADVILLE      CLOUDY    14   2  58 NW16G29   29.96R WCI  -2
MONARCH PASS   CLOUDY    10   9  92 MISG      30.03S
SALIDA         CLEAR     26  15  62 N6        30.04R WCI  20
SUNLIGHT       CLEAR    N/A N/A N/A W7G21       N/A
WILKERSON PASS PTCLDY     9   1  72 N12G28    29.93R WCI  -6
$$

COZ069>075-011200-
...SAN LUIS VALLEY/SANGRE DE CRISTO MOUNTAINS...

CITY           SKY/WX    TMP DP  RH WIND       PRES   REMARKS
ALAMOSA        FOG       24  22  91 CALM      29.99R VSB 1/4
LA VETA PASS   PTCLDY    18  14  86 MISG      29.96R
SAGUACHE       PTCLDY    25  14  63 NW5       29.99R WCI  19
$$

COZ035-036-038>040-011200-
...NORTHERN COLORADO FRONT RANGE...

CITY           SKY/WX    TMP DP  RH WIND       PRES   REMARKS
DENVER INTL AP FLURRIES  23  17  78 NE15      30.06R WCI  10
DMNS CITY PARK   N/A     22  22  97 E8        30.08R WCI  13
AURORA         LGT SNOW  21  20  98 N8        30.06R FOG     WCI  11
FRONT RANGE AP NOT AVBL
ERIE MUNI ARPT FLURRIES  24  21  89 S3        30.08R
BOULDER MUN AP LGT SNOW  25  25 100 CALM      30.06R
CENTENNIAL     LGT SNOW  20  18  92 N7        30.05R FOG     WCI  11
BROOMFIELD     LGT SNOW  25  23  93 CALM      30.06R VSB 3/4
FORT COLLINS   PTCLDY    23  14  68 NE9       30.06R WCI  13
LONGMONT       CLOUDY    26  21  80 SE3       30.09R
$$

COZ041-046-047-076>085-087-088-011200-
...PIKES PEAK/PALMER DIVIDE AND SOUTHERN FOOTHILLS...

CITY           SKY/WX    TMP DP  RH WIND       PRES   REMARKS
COLO. SPRINGS  PTCLDY    25  19  78 N17       30.01R WCI  12
A. F. ACADEMY  MOCLDY    25  19  80 N17G24    29.99R WCI  11
ELLICOTT       PTCLDY   N/A N/A N/A N23       29.97R
FALCON         LGT SNOW  21  19  89 N17G23    29.99R WCI   7
FORT CARSON    PTCLDY    27  21  77 N21G28    29.98R WCI  14
LIMON          LGT SNOW  22  20  92 N17       30.03R FOG     WCI   8
MONUMENT HILL  LGT SNOW  19  18  93 N9        29.99R WCI   9
TRINIDAD       LGT SNOW  31  29  92 NE10      30.00R FOG     WCI  22
$$

COZ042>045-048>051-090-091-011200-
...NORTHEAST COLORADO...

CITY           SKY/WX    TMP DP  RH WIND       PRES   REMARKS
GREELEY ARPT   MOCLDY    25  12  58 N14       30.06R WCI  13
AKRON          CLOUDY    22  21  96 N18       30.04R WCI   7
BURLINGTON     CLOUDY    23  18  81 N22G33    30.01R WCI   8
WRAY           CLOUDY    22  19  88 N18G25    30.08R WCI   8
STERLING       CLOUDY    27  21  80 NE13G26   30.07R WCI  16
HOLYOKE        NOT AVBL
FORT MORGAN    CLOUDY    24  17  72 N15G25    30.07S WCI  12
$$

COZ086-089-092>099-011200-
...SOUTHEAST COLORADO...

CITY           SKY/WX    TMP DP  RH WIND       PRES   REMARKS
PUEBLO         CLEAR     31  24  75 NE8       30.01R WCI  23
LA JUNTA       MOCLDY    32  25  75 N15       30.02R WCI  22
LAMAR          CLOUDY    31  25  78 N14G23    30.02R WCI  21
SPRINGFIELD      N/A     30  28  92 N25G35    29.96R WCI  16
$$


USA.gov is the U.S. government's official web portal to all federal, state and local government web resources and services.